[[{"header":{"parameterUnit":"m.s-1","parameterCategory":1,"la1":30.2991,"la2":30.254,"lo1":-89.0895,"lo2":-89.0444,"dy":0.0017,"dx":0.0017,"nx":28,"ny":28,"refTime":"2023-03-22T21:00:00:Z","depth":0,"parameterNumber":2,"parameterNumberName":"U-component_of_WINDS"},"data":[0,0,0,0,0,0,0,0,0,0,0,0,0,0,0,0,0,0,0,0,0,0,0,0,0,0,0,0,0,0,0,0,0,0,0,0,0,0,0,0,0,0,0,0,0,0,0,0,0,0,0,0,0,0,0,0,0,0,-2.0201,-2.0201,0,-2.0229,-2.0229,-2.023,-2.0223,-2.0223,-2.0222,-2.0222,-2.025,-2.0252,-2.0253,0,0,0,0,0,0,0,0,0,0,0,0,0,-2.0141,-2.0142,-2.0201,-2.0201,-2.0201,-2.0229,-2.0229,-2.023,-2.0223,-2.0223,-2.0222,-2.0221,-2.025,-2.0251,-2.0253,0,0,0,0,0,0,0,0,0,0,0,0,0,-2.0168,-2.0143,-2.0201,-2.0201,-2.0202,-2.0229,-2.0229,-2.023,-2.0223,-2.0223,-2.0222,-2.0221,-2.0249,-2.0251,-2.0253,-2.0281,0,0,-2.0259,-2.026,0,0,0,0,0,0,0,0,-2.0167,-2.017,-2.0201,-2.0201,-2.0202,-2.0222,-2.0219,-2.0247,-2.0224,-2.0215,-2.0222,-2.0221,-2.0241,-2.0244,-2.0251,-2.0282,-2.0284,-2.0259,-2.026,-2.0261,-2.0262,0,0,0,0,0,0,0,-2.0165,-2.0169,-2.0212,-2.0201,-2.0202,-2.0201,-2.0204,-2.0224,-2.0232,-2.0216,-2.0215,-2.0219,-2.0242,-2.0249,-2.0252,-2.0284,-2.0259,-2.0261,-2.0262,-2.0263,-2.034,-2.0341,0,0,0,0,0,0,-2.0163,-2.0168,-2.0211,-2.0213,-2.0182,-2.0202,-2.0206,-2.0216,-2.0232,-2.0234,-2.022,-2.0219,-2.0246,-2.0249,-2.0253,-2.0286,-2.0261,-2.0263,-2.0264,-2.0339,-2.0341,-2.0342,0,0,0,0,0,0,-2.0161,-2.0166,-2.021,-2.019,-2.0195,-2.0204,-2.0216,-2.0217,-2.0225,-2.0235,-2.0236,-2.0226,-2.0246,-2.025,-2.0274,-2.0287,-2.0264,-2.0265,-2.0338,-2.034,-2.0341,-2.0354,0,0,0,0,0,0,-2.016,-2.0166,-2.0176,-2.019,-2.0197,-2.0231,-2.0217,-2.0218,-2.0228,-2.0227,-2.0241,-2.0243,-2.0246,-2.0271,-2.0276,-2.0289,-2.0267,-2.0337,-2.0339,-2.0341,-2.0352,-2.0356,-2.0358,0,0,0,0,0,-2.0157,-2.0179,-2.0177,-2.0182,-2.021,-2.0231,-2.0235,-2.0238,-2.0229,-2.024,-2.0247,-2.0242,-2.0285,-2.0274,-2.0279,-2.0293,-2.0336,-2.0338,-2.034,-2.0351,-2.0355,-2.0358,0,0,0,0,0,0,-2.0166,-2.0181,-2.0179,-2.0205,-2.0217,-2.023,-2.0244,-2.0242,-2.0256,-2.0254,-2.0257,-2.026,-2.0285,-2.0292,-2.0279,-2.0322,-2.031,-2.0313,-2.0316,-2.032,-2.0323,-2.032,-2.0268,0,0,0,0,0,-2.0171,-2.0187,-2.0199,-2.0221,-2.0228,-2.0235,-2.0244,-2.0245,-2.0258,-2.0263,-2.0271,-2.0283,-2.03,-2.031,-2.0326,-2.0354,-2.0357,-2.0366,-2.0369,-2.0372,-2.0374,-2.039,-2.0394,-2.0348,-2.0348,-2.0348,0,0,-2.0181,-2.0191,-2.0201,-2.0223,-2.0233,-2.025,-2.0239,-2.0257,-2.027,-2.0265,-2.0289,-2.0296,-2.031,-2.0336,-2.0348,-2.0342,-2.0388,-2.0374,-2.0376,-2.0377,-2.0392,-2.0397,-2.04,-2.035,-2.035,-2.0349,0,0,-2.0208,-2.0218,-2.0237,-2.0247,-2.0262,-2.0267,-2.0271,-2.0285,-2.029,-2.0313,-2.0311,-2.0326,-2.0354,-2.0364,-2.0373,-2.0405,-2.0402,-2.041,-2.0426,-2.0441,-2.0444,-2.0448,-2.0459,-2.0463,-2.0413,-2.0413,-2.0413,0,-2.0219,-2.0244,-2.0248,-2.0266,-2.0276,-2.0274,-2.0294,-2.0303,-2.0322,-2.0329,-2.0323,-2.0358,-2.0367,-2.0396,-2.0404,-2.0412,-2.0417,-2.0408,-2.0444,-2.0447,-2.045,-2.0461,-2.0465,-2.0414,-2.0414,-2.0414,-2.0414,0,-2.0257,-2.0275,-2.0289,-2.0307,-2.0319,-2.0338,-2.0345,-2.0356,-2.0357,-2.0362,-2.0387,-2.0398,-2.0416,-2.0423,-2.0424,-2.0452,-2.0448,-2.0443,-2.0431,-2.0455,-2.0465,-2.0469,-2.0415,-2.0415,-2.0415,-2.0414,0,0,-2.0289,-2.031,-2.0315,-2.0323,-2.034,-2.0354,-2.0373,-2.0391,-2.0401,-2.0414,-2.0431,-2.0455,-2.0451,-2.0461,-2.0463,-2.0476,-2.0501,-2.0469,-2.0469,-2.0474,-2.0533,-2.0536,-2.0541,-2.05,-2.05,-2.0501,-2.0532,0,-2.0317,-2.0351,-2.0355,-2.0386,-2.0402,-2.0401,-2.0418,-2.043,-2.0436,-2.0451,-2.0458,-2.0475,-2.0468,-2.0474,-2.0488,-2.0495,-2.0513,-2.0493,-2.0514,-2.0515,-2.051,-2.0547,-2.055,-2.0578,-2.0536,-2.0536,-2.0537,0,-2.0354,-2.0369,-2.0401,-2.0416,-2.0423,-2.0438,-2.0455,-2.047,-2.0484,-2.0487,-2.0499,-2.05,-2.052,-2.0509,-2.0537,-2.0524,-2.0533,-2.0538,-2.0539,-2.0541,-2.0527,-2.0548,-2.0587,-2.0591,-2.0543,-2.0543,-2.0542,0,-2.0374,-2.0402,-2.0425,-2.0433,-2.045,-2.0461,-2.0469,-2.0482,-2.0493,-2.0508,-2.0515,-2.0533,-2.0542,-2.0555,-2.0561,-2.0552,-2.0589,-2.0577,-2.0592,-2.0592,-2.0599,-2.0598,-2.064,-2.0607,-2.0606,-2.0606,-2.0606,0,-2.0405,-2.0424,-2.0434,-2.0448,-2.047,-2.0475,-2.0497,-2.0505,-2.0517,-2.0532,-2.0533,-2.0547,-2.0554,-2.057,-2.0574,-2.0597,-2.0601,-2.0605,-2.0606,-2.0604,-2.0604,-2.061,-2.0608,-2.0608,-2.0607,-2.0607,-2.0607,0,-2.043,-2.0437,-2.0462,-2.0477,-2.0482,-2.0497,-2.051,-2.0524,-2.0531,-2.055,-2.0555,-2.0566,-2.0584,-2.0592,-2.0614,-2.0618,-2.0644,-2.0643,-2.0639,-2.0639,-2.0653,-2.0651,-2.0699,-2.0705,-2.0669,-2.0669,-2.0669,0,-2.0449,-2.0464,-2.0481,-2.0491,-2.05,-2.0517,-2.0528,-2.0534,-2.0545,-2.0563,-2.0574,-2.0593,-2.0608,-2.0639,-2.0648,-2.0666,-2.0665,-2.0681,-2.0668,-2.0666,-2.0665,-2.0664,-2.0665,-2.0683,-2.0683,-2.0684,-2.0684,0,-2.0481,-2.0484,-2.05,-2.0517,-2.0531,-2.0545,-2.0558,-2.0567,-2.0575,-2.0588,-2.0607,-2.0619,-2.0643,-2.0661,-2.068,-2.0688,-2.0687,-2.0688,-2.0692,-2.0691,-2.0687,-2.0689,-2.0645,-2.0687,-2.0686,-2.0686,-2.0686,-2.0686,-2.0504,-2.0517,-2.0531,-2.0549,-2.056,-2.0573,-2.0586,-2.0595,-2.0611,-2.0631,-2.0633,-2.0654,-2.0668,-2.0693,-2.0702,-2.0719,-2.0715,-2.0721,-2.0722,-2.0724,-2.0725,-2.0686,-2.0722,-2.0722,-2.0722,-2.0722,-2.0722,0,-2.0536,-2.0545,-2.0561,-2.058,-2.0595,-2.0593,-2.0608,-2.062,-2.0638,-2.0652,-2.0667,-2.0689,-2.0708,-2.0719,-2.0738,-2.0749,-2.0749,-2.0753,-2.0752,-2.0754,-2.0727,-2.0722,-2.0753,-2.0753,-2.0753,-2.0753,-2.0753,-2.0753,-2.0554,-2.0577,-2.0582,-2.061,-2.0619,-2.0639,-2.0648,-2.066,-2.0671,-2.0696,-2.0711,-2.0718,-2.0731,-2.0751,-2.0768,-2.0771,-2.0777,-2.0782,-2.0785,-2.0759,-2.0756,-2.0753,-2.0747,-2.0784,-2.0784,-2.081,-2.081,-2.081]},{"header":{"parameterUnit":"m.s-1","parameterCategory":1,"la1":30.2991,"la2":30.254,"lo1":-89.0895,"lo2":-89.0444,"dy":0.0017,"dx":0.0017,"nx":28,"ny":28,"refTime":"2023-03-22T21:00:00:Z","depth":0,"parameterNumber":3,"parameterNumberName":"V-component_of_WINDS"},"data":[0,0,0,0,0,0,0,0,0,0,0,0,0,0,0,0,0,0,0,0,0,0,0,0,0,0,0,0,0,0,0,0,0,0,0,0,0,0,0,0,0,0,0,0,0,0,0,0,0,0,0,0,0,0,0,0,0,0,3.0572,3.0571,0,3.0482,3.0481,3.048,3.0514,3.0516,3.0518,3.052,3.0424,3.042,3.0415,0,0,0,0,0,0,0,0,0,0,0,0,0,3.077,3.0766,3.0572,3.0571,3.057,3.0483,3.0481,3.048,3.0513,3.0516,3.0518,3.0521,3.0426,3.042,3.0415,0,0,0,0,0,0,0,0,0,0,0,0,0,3.0682,3.0764,3.0572,3.0576,3.0575,3.0483,3.0481,3.048,3.0513,3.0516,3.0519,3.0522,3.0427,3.0421,3.0414,3.0311,0,0,3.0394,3.0391,0,0,0,0,0,0,0,0,3.0687,3.0675,3.0576,3.0575,3.0575,3.0513,3.0516,3.0423,3.0512,3.0536,3.052,3.0524,3.0451,3.0442,3.0419,3.0307,3.0303,3.0393,3.0389,3.0386,3.0384,0,0,0,0,0,0,0,3.0693,3.0679,3.0536,3.0575,3.0574,3.0581,3.0572,3.0498,3.0477,3.0535,3.0537,3.0526,3.0451,3.0425,3.0417,3.0301,3.0393,3.0387,3.0383,3.0381,3.0104,3.01,0,0,0,0,0,0,3.07,3.0684,3.0539,3.0534,3.064,3.0575,3.0565,3.0529,3.0478,3.0473,3.0524,3.0528,3.0435,3.0424,3.0413,3.0292,3.0386,3.038,3.0376,3.0107,3.0103,3.0099,0,0,0,0,0,0,3.0704,3.0687,3.0543,3.0609,3.0592,3.0569,3.0528,3.0526,3.05,3.047,3.0466,3.0501,3.0437,3.0423,3.0337,3.0289,3.0377,3.0371,3.0111,3.0106,3.0101,3.0046,0,0,0,0,0,0,3.071,3.0688,3.0649,3.0608,3.0588,3.0468,3.0525,3.0522,3.0489,3.0494,3.0448,3.0443,3.0438,3.0347,3.0331,3.0281,3.0366,3.0115,3.0108,3.0103,3.0052,3.004,3.0029,0,0,0,0,0,3.0716,3.0635,3.0647,3.0629,3.0539,3.0466,3.0454,3.0451,3.0485,3.0445,3.0427,3.0445,3.0297,3.0338,3.032,3.0267,3.0118,3.011,3.0103,3.0057,3.0042,3.0029,0,0,0,0,0,0,3.0668,3.063,3.0642,3.0545,3.0509,3.0472,3.0421,3.0435,3.0387,3.0393,3.0391,3.038,3.0293,3.0271,3.0318,3.0167,3.0212,3.0201,3.0184,3.0169,3.0158,3.0165,3.036,0,0,0,0,0,3.0647,3.0592,3.0561,3.0478,3.046,3.0444,3.0412,3.0413,3.0375,3.0359,3.0333,3.0294,3.024,3.0203,3.0151,3.0049,3.0041,3.0004,2.9993,2.9984,2.9974,2.9921,2.9906,3.0075,3.0075,3.0075,0,0,3.0601,3.0573,3.0538,3.0468,3.044,3.0383,3.043,3.0367,3.0325,3.0349,3.0268,3.0248,3.0204,3.0111,3.0069,3.0091,2.9926,2.9974,2.9967,2.9962,2.9912,2.9896,2.9882,3.0069,3.007,3.0071,0,0,3.0489,3.0461,3.0391,3.0363,3.0321,3.0312,3.0295,3.0256,3.0245,3.0163,3.0181,3.0131,3.0035,3.0004,2.9976,2.9856,2.9872,2.9839,2.9779,2.9728,2.9715,2.9703,2.9662,2.9647,2.9829,2.9829,2.9829,0,3.0436,3.0352,3.0353,3.029,3.0259,3.0281,3.021,3.0182,3.0124,3.0102,3.0128,3.0012,2.9983,2.9885,2.9856,2.9832,2.9813,2.9844,2.9717,2.9705,2.9694,2.9655,2.9639,2.9825,2.9826,2.9826,2.9826,0,3.0291,3.0233,3.0181,3.0127,3.0091,3.0024,3.0015,2.9977,2.9983,2.9971,2.9889,2.9857,2.98,2.9776,2.9779,2.9679,2.9694,2.9718,2.9764,2.9674,2.9637,2.9622,2.982,2.9821,2.9823,2.9823,0,0,3.0144,3.0095,3.0076,3.0053,3.001,2.9964,2.9899,2.9845,2.9814,2.9774,2.9719,2.964,2.9664,2.9632,2.9632,2.9587,2.9497,2.9617,2.9616,2.9597,2.9386,2.9369,2.9351,2.9507,2.9504,2.9502,2.939,0,3.003,2.9917,2.9917,2.9813,2.976,2.9781,2.9724,2.9692,2.9679,2.9632,2.9618,2.9562,2.9596,2.9578,2.9534,2.9517,2.9454,2.9525,2.9457,2.9454,2.9468,2.9332,2.9313,2.9209,2.9376,2.9373,2.9371,0,2.9881,2.9839,2.973,2.9697,2.9675,2.9624,2.9576,2.9531,2.9495,2.9489,2.9455,2.9463,2.9397,2.9446,2.9356,2.9404,2.9376,2.9363,2.9359,2.9353,2.9408,2.9323,2.9176,2.9161,2.9348,2.935,2.9352,0,2.9787,2.9703,2.9628,2.9607,2.9566,2.9531,2.9512,2.9479,2.9448,2.9406,2.9386,2.9336,2.9308,2.927,2.9264,2.93,2.9174,2.9222,2.9168,2.9168,2.9141,2.9143,2.8988,2.9121,2.9121,2.9122,2.9122,0,2.966,2.9592,2.9586,2.9539,2.9465,2.9466,2.9393,2.9377,2.9348,2.9299,2.9314,2.9268,2.9263,2.9216,2.9211,2.9138,2.9125,2.9119,2.9119,2.9118,2.9119,2.91,2.9108,2.9118,2.9119,2.9119,2.912,0,2.9542,2.9534,2.9454,2.9424,2.9414,2.9361,2.9335,2.9291,2.9281,2.9219,2.9205,2.9189,2.9134,2.9125,2.906,2.9057,2.8971,2.8977,2.8983,2.8985,2.8933,2.8938,2.8761,2.8739,2.8885,2.8884,2.8883,0,2.9462,2.9411,2.9376,2.9345,2.9326,2.9275,2.9245,2.9244,2.9211,2.9168,2.913,2.9077,2.9035,2.8946,2.8928,2.8879,2.8885,2.8827,2.8878,2.888,2.8887,2.889,2.8886,2.8817,2.8815,2.8814,2.8813,0,2.9321,2.932,2.9276,2.9231,2.9194,2.9158,2.9124,2.9097,2.9093,2.9055,2.9001,2.8968,2.8904,2.8851,2.8803,2.8784,2.8798,2.8797,2.8783,2.8782,2.8789,2.8786,2.8958,2.8801,2.8802,2.8803,2.8804,2.8804,2.922,2.9177,2.9147,2.9098,2.9073,2.9041,2.9,2.8986,2.8941,2.889,2.8892,2.8832,2.88,2.8737,2.8715,2.8668,2.8687,2.8665,2.866,2.8655,2.8651,2.8796,2.8659,2.8659,2.866,2.866,2.866,0,2.9081,2.9064,2.9019,2.8972,2.8934,2.8952,2.8916,2.8883,2.8831,2.88,2.8759,2.8698,2.8648,2.8628,2.8579,2.8546,2.8551,2.8533,2.8536,2.8532,2.8636,2.8654,2.853,2.853,2.853,2.853,2.853,2.853,2.9005,2.8934,2.8931,2.8849,2.8831,2.8774,2.8753,2.8724,2.87,2.8632,2.8591,2.8579,2.8553,2.8503,2.8458,2.8454,2.8436,2.8415,2.8413,2.8511,2.8524,2.8537,2.8554,2.8411,2.8411,2.8314,2.8313,2.8312]}]]